Wetterdaten: Mittwoch, 19.10.2005
Datum Zeit Temp. A Sch. Temp. A Son. Feuchte A. Luftdruck Regen Wind Richtung Richtung Sonnenschein Helligkeit Taupunkt Windchill
19.10.2005 00:00 4,0 C 3,3 C 84 % 1020 hPa 0,0 l/m 1,9 m/s (1 Bft) O22.5 80 0,00 min 0 lux 1,5 C 3,7 C
19.10.2005 00:05 4,0 C 3,3 C 84 % 1020 hPa 0,0 l/m 1,6 m/s (1 Bft) O22.5 80 0,00 min 0 lux 1,5 C 4,0 C
19.10.2005 00:10 3,8 C 3,3 C 84 % 1020 hPa 0,0 l/m 1,9 m/s (1 Bft) O45 80 0,00 min 0 lux 1,4 C 3,5 C
19.10.2005 00:15 3,9 C 3,4 C 84 % 1020 hPa 0,0 l/m 2,4 m/s (1 Bft) O-NO22.5 70 0,00 min 0 lux 1,4 C 2,0 C
19.10.2005 00:20 3,6 C 3,3 C 84 % 1020 hPa 0,0 l/m 2,1 m/s (1 Bft) O-NO22.5 70 0,00 min 0 lux 1,2 C 2,4 C
19.10.2005 00:25 3,6 C 3,3 C 85 % 1020 hPa 0,0 l/m 1,9 m/s (1 Bft) NO22.5 55 0,00 min 0 lux 1,3 C 3,3 C
19.10.2005 00:30 3,5 C 3,2 C 85 % 1020 hPa 0,0 l/m 1,8 m/s (1 Bft) O-NO22.5 65 0,00 min 0 lux 1,2 C 3,4 C
19.10.2005 00:35 3,5 C 3,1 C 86 % 1020 hPa 0,0 l/m 2,2 m/s (1 Bft) O-NO22.5 65 0,00 min 0 lux 1,4 C 2,1 C
19.10.2005 00:40 3,5 C 3,1 C 86 % 1020 hPa 0,0 l/m 2,2 m/s (1 Bft) O-NO22.5 70 0,00 min 0 lux 1,4 C 2,1 C
19.10.2005 00:45 3,6 C 3,0 C 86 % 1020 hPa 0,0 l/m 1,9 m/s (1 Bft) O-NO22.5 75 0,00 min 0 lux 1,5 C 3,3 C
19.10.2005 00:50 3,5 C 3,1 C 86 % 1020 hPa 0,0 l/m 2,0 m/s (1 Bft) O-NO45 75 0,00 min 0 lux 1,4 C 2,7 C
19.10.2005 00:55 3,5 C 3,1 C 86 % 1020 hPa 0,0 l/m 2,8 m/s (1 Bft) O-NO45 70 0,00 min 0 lux 1,4 C 0,4 C
19.10.2005 01:00 3,6 C 3,1 C 86 % 1020 hPa 0,0 l/m 1,6 m/s (1 Bft) O22.5 95 0,00 min 0 lux 1,5 C 3,6 C
19.10.2005 01:05 3,5 C 3,1 C 86 % 1020 hPa 0,0 l/m 2,2 m/s (1 Bft) O67.5 85 0,00 min 0 lux 1,4 C 2,1 C
19.10.2005 01:10 3,4 C 3,0 C 86 % 1020 hPa 0,0 l/m 1,8 m/s (1 Bft) O22.5 85 0,00 min 0 lux 1,3 C 3,3 C
19.10.2005 01:15 3,4 C 3,0 C 86 % 1020 hPa 0,0 l/m 2,8 m/s (1 Bft) O22.5 90 0,00 min 0 lux 1,3 C 0,2 C
19.10.2005 01:20 3,6 C 3,1 C 86 % 1020 hPa 0,0 l/m 2,7 m/s (1 Bft) O22.5 90 0,00 min 0 lux 1,5 C 0,7 C
19.10.2005 01:25 3,7 C 3,1 C 86 % 1020 hPa 0,0 l/m 2,9 m/s (1 Bft) O45 95 0,00 min 0 lux 1,6 C 0,3 C
19.10.2005 01:30 3,6 C 3,1 C 86 % 1020 hPa 0,0 l/m 3,4 m/s (1 Bft) O45 90 0,00 min 0 lux 1,5 C -1,0 C
19.10.2005 01:35 3,2 C 3,1 C 85 % 1020 hPa 0,0 l/m 1,3 m/s (1 Bft) O-SO22.5 115 0,00 min 0 lux 0,9 C 3,2 C
19.10.2005 01:40 3,1 C 3,0 C 85 % 1020 hPa 0,0 l/m 1,3 m/s (1 Bft) O-SO22.5 105 0,00 min 0 lux 0,8 C 3,1 C
19.10.2005 01:45 2,9 C 3,0 C 86 % 1020 hPa 0,0 l/m 0,1 m/s (0 Bft) O-SO22.5 120 0,00 min 0 lux 0,8 C 2,9 C
19.10.2005 01:50 2,7 C 2,9 C 86 % 1020 hPa 0,0 l/m 0,0 m/s (0 Bft) O-SO22.5 120 0,00 min 0 lux 0,6 C 2,7 C
19.10.2005 01:55 2,8 C 2,9 C 87 % 1020 hPa 0,0 l/m 0,4 m/s (0 Bft) O-SO 115 0,00 min 0 lux 0,9 C 2,8 C
19.10.2005 02:00 2,8 C 2,8 C 87 % 1020 hPa 0,0 l/m 0,1 m/s (0 Bft) O22.5 100 0,00 min 0 lux 0,9 C 2,8 C
19.10.2005 02:05 3,0 C 2,6 C 87 % 1020 hPa 0,0 l/m 0,0 m/s (0 Bft) O 100 0,00 min 0 lux 1,1 C 3,0 C
19.10.2005 02:10 2,4 C 2,6 C 88 % 1020 hPa 0,0 l/m 0,0 m/s (0 Bft) O 95 0,00 min 0 lux 0,6 C 2,4 C
19.10.2005 02:15 2,3 C 2,6 C 88 % 1020 hPa 0,0 l/m 0,2 m/s (0 Bft) O22.5 85 0,00 min 0 lux 0,5 C 2,3 C
19.10.2005 02:20 2,8 C 2,4 C 89 % 1020 hPa 0,0 l/m 1,4 m/s (1 Bft) O-NO45 75 0,00 min 0 lux 1,2 C 2,8 C
19.10.2005 02:25 2,8 C 2,4 C 89 % 1020 hPa 0,0 l/m 0,1 m/s (0 Bft) O22.5 95 0,00 min 0 lux 1,2 C 2,8 C
19.10.2005 02:30 2,3 C 2,3 C 89 % 1020 hPa 0,0 l/m 0,0 m/s (0 Bft) O-SO22.5 115 0,00 min 0 lux 0,7 C 2,3 C
19.10.2005 02:35 2,1 C 2,3 C 88 % 1020 hPa 0,0 l/m 0,0 m/s (0 Bft) O-SO 115 0,00 min 0 lux 0,3 C 2,1 C
19.10.2005 02:40 1,8 C 2,2 C 89 % 1020 hPa 0,0 l/m 0,0 m/s (0 Bft) O-SO 115 0,00 min 0 lux 0,2 C 1,8 C
19.10.2005 02:45 1,8 C 2,2 C 89 % 1020 hPa 0,0 l/m 0,0 m/s (0 Bft) O-SO 115 0,00 min 0 lux 0,2 C 1,8 C
19.10.2005 02:50 1,9 C 2,1 C 89 % 1020 hPa 0,0 l/m 0,0 m/s (0 Bft) O-SO 115 0,00 min 0 lux 0,3 C 1,9 C
19.10.2005 02:55 1,6 C 2,1 C 89 % 1020 hPa 0,0 l/m 0,8 m/s (0 Bft) W-SW22.5 240 0,00 min 0 lux -0,0 C 1,6 C
19.10.2005 03:00 1,6 C 2,1 C 90 % 1020 hPa 0,0 l/m 0,1 m/s (0 Bft) W22.5 260 0,00 min 0 lux 0,1 C 1,6 C
19.10.2005 03:05 1,2 C 2,1 C 90 % 1020 hPa 0,0 l/m 0,0 m/s (0 Bft) W 280 0,00 min 0 lux -0,3 C 1,2 C
19.10.2005 03:10 1,4 C 1,9 C 90 % 1020 hPa 0,0 l/m 0,1 m/s (0 Bft) NO 35 0,00 min 0 lux -0,1 C 1,4 C
19.10.2005 03:15 1,1 C 1,8 C 90 % 1020 hPa 0,0 l/m 0,0 m/s (0 Bft) NO 35 0,00 min 0 lux -0,4 C 1,1 C
19.10.2005 03:20 1,0 C 1,7 C 91 % 1020 hPa 0,0 l/m 0,0 m/s (0 Bft) NO 35 0,00 min 0 lux -0,3 C 1,0 C
19.10.2005 03:25 1,2 C 1,6 C 91 % 1020 hPa 0,0 l/m 0,0 m/s (0 Bft) NO 35 0,00 min 0 lux -0,1 C 1,2 C
19.10.2005 03:30 1,8 C 1,7 C 92 % 1020 hPa 0,0 l/m 1,0 m/s (0 Bft) O-NO22.5 65 0,00 min 0 lux 0,6 C 1,8 C
19.10.2005 03:35 2,3 C 1,8 C 91 % 1020 hPa 0,0 l/m 3,7 m/s (1 Bft) O-NO22.5 70 0,00 min 0 lux 1,0 C -3,1 C
19.10.2005 03:40 2,8 C 1,9 C 92 % 1019 hPa 0,0 l/m 4,3 m/s (1 Bft) O-NO45 65 0,00 min 0 lux 1,6 C -3,8 C
19.10.2005 03:45 3,2 C 2,1 C 91 % 1019 hPa 0,0 l/m 3,9 m/s (1 Bft) O45 90 0,00 min 0 lux 1,9 C -2,5 C
19.10.2005 03:50 3,4 C 2,1 C 89 % 1019 hPa 0,0 l/m 3,4 m/s (1 Bft) O22.5 80 0,00 min 0 lux 1,8 C -1,2 C
19.10.2005 03:55 3,3 C 2,2 C 89 % 1019 hPa 0,0 l/m 2,8 m/s (1 Bft) O45 80 0,00 min 0 lux 1,7 C 0,2 C
19.10.2005 04:00 3,4 C 2,3 C 87 % 1019 hPa 0,0 l/m 2,6 m/s (1 Bft) O22.5 90 0,00 min 0 lux 1,4 C 0,7 C
19.10.2005 04:05 3,5 C 2,3 C 85 % 1019 hPa 0,0 l/m 2,8 m/s (1 Bft) O45 90 0,00 min 0 lux 1,2 C 0,4 C
19.10.2005 04:10 3,9 C 2,5 C 84 % 1019 hPa 0,0 l/m 4,3 m/s (1 Bft) O45 85 0,00 min 0 lux 1,4 C -2,5 C
19.10.2005 04:15 3,8 C 2,6 C 83 % 1019 hPa 0,0 l/m 4,8 m/s (1 Bft) O45 90 0,00 min 0 lux 1,2 C -3,5 C
19.10.2005 04:20 3,6 C 2,7 C 82 % 1019 hPa 0,0 l/m 3,7 m/s (1 Bft) O22.5 90 0,00 min 0 lux 0,8 C -1,7 C
19.10.2005 04:25 3,3 C 2,6 C 82 % 1019 hPa 0,0 l/m 2,6 m/s (1 Bft) O45 90 0,00 min 0 lux 0,5 C 0,6 C
19.10.2005 04:30 3,1 C 2,6 C 82 % 1019 hPa 0,0 l/m 1,5 m/s (1 Bft) O45 100 0,00 min 0 lux 0,3 C 3,1 C
19.10.2005 04:35 3,0 C 2,5 C 83 % 1019 hPa 0,0 l/m 1,7 m/s (1 Bft) O-SO22.5 105 0,00 min 0 lux 0,4 C 3,0 C
19.10.2005 04:40 2,7 C 2,5 C 84 % 1019 hPa 0,0 l/m 0,4 m/s (0 Bft) O-SO 105 0,00 min 0 lux 0,3 C 2,7 C
19.10.2005 04:45 2,7 C 2,3 C 85 % 1019 hPa 0,0 l/m 0,0 m/s (0 Bft) O-NO22.5 65 0,00 min 0 lux 0,4 C 2,7 C
19.10.2005 04:50 2,8 C 2,3 C 85 % 1019 hPa 0,0 l/m 1,4 m/s (1 Bft) O22.5 80 0,00 min 0 lux 0,5 C 2,8 C
19.10.2005 04:55 2,8 C 2,2 C 86 % 1019 hPa 0,0 l/m 0,2 m/s (0 Bft) O 80 0,00 min 0 lux 0,7 C 2,8 C
19.10.2005 05:00 2,4 C 2,1 C 85 % 1019 hPa 0,0 l/m 0,0 m/s (0 Bft) O 80 0,00 min 0 lux 0,1 C 2,4 C
19.10.2005 05:05 2,5 C 2,0 C 85 % 1019 hPa 0,0 l/m 0,0 m/s (0 Bft) O22.5 95 0,00 min 0 lux 0,2 C 2,5 C
19.10.2005 05:10 2,7 C 2,0 C 86 % 1019 hPa 0,0 l/m 2,1 m/s (1 Bft) O22.5 80 0,00 min 0 lux 0,6 C 1,7 C
19.10.2005 05:15 2,2 C 2,0 C 86 % 1019 hPa 0,0 l/m 2,7 m/s (1 Bft) O22.5 95 0,00 min 0 lux 0,1 C -0,9 C
19.10.2005 05:20 2,0 C 1,9 C 85 % 1019 hPa 0,0 l/m 0,0 m/s (0 Bft) O-SO 120 0,00 min 0 lux -0,3 C 2,0 C
19.10.2005 05:25 1,5 C 1,8 C 86 % 1019 hPa 0,0 l/m 0,0 m/s (0 Bft) O22.5 95 0,00 min 0 lux -0,6 C 1,5 C
19.10.2005 05:30 1,4 C 1,7 C 86 % 1019 hPa 0,0 l/m 0,0 m/s (0 Bft) O 85 0,00 min 0 lux -0,7 C 1,4 C
19.10.2005 05:35 1,1 C 1,6 C 87 % 1019 hPa 0,0 l/m 0,0 m/s (0 Bft) O 85 0,00 min 0 lux -0,8 C 1,1 C
19.10.2005 05:40 0,8 C 1,5 C 88 % 1019 hPa 0,0 l/m 0,0 m/s (0 Bft) O 85 0,00 min 0 lux -1,0 C 0,8 C
19.10.2005 05:45 1,3 C 1,4 C 88 % 1019 hPa 0,0 l/m 0,0 m/s (0 Bft) O 85 0,00 min 0 lux -0,5 C 1,3 C
19.10.2005 05:50 1,4 C 1,3 C 89 % 1019 hPa 0,0 l/m 2,5 m/s (1 Bft) O-NO22.5 75 0,00 min 0 lux -0,2 C -1,0 C
19.10.2005 05:55 1,9 C 1,3 C 90 % 1019 hPa 0,0 l/m 2,5 m/s (1 Bft) O45 90 0,00 min 0 lux 0,4 C -0,5 C
19.10.2005 06:00 2,3 C 1,3 C 90 % 1019 hPa 0,0 l/m 2,8 m/s (1 Bft) O22.5 80 0,00 min 0 lux 0,8 C -1,1 C
19.10.2005 06:05 2,3 C 1,3 C 89 % 1019 hPa 0,0 l/m 3,6 m/s (1 Bft) O45 85 0,00 min 0 lux 0,7 C -2,9 C
19.10.2005 06:10 2,3 C 1,3 C 88 % 1019 hPa 0,0 l/m 2,1 m/s (1 Bft) O22.5 80 0,00 min 0 lux 0,5 C 1,1 C
19.10.2005 06:15 1,0 C 1,2 C 87 % 1019 hPa 0,0 l/m 0,0 m/s (0 Bft) SW 230 0,00 min 0 lux -0,9 C 1,0 C
19.10.2005 06:20 0,8 C 1,2 C 87 % 1019 hPa 0,0 l/m 0,0 m/s (0 Bft) SW 230 0,00 min 0 lux -1,1 C 0,8 C
19.10.2005 06:25 1,5 C 1,0 C 88 % 1019 hPa 0,0 l/m 1,2 m/s (1 Bft) O-NO22.5 65 0,00 min 0 lux -0,3 C 1,5 C
19.10.2005 06:30 1,8 C 1,1 C 89 % 1019 hPa 0,0 l/m 2,4 m/s (1 Bft) O-NO22.5 65 0,00 min 0 lux 0,2 C -0,2 C
19.10.2005 06:35 2,1 C 1,1 C 89 % 1019 hPa 0,0 l/m 1,4 m/s (1 Bft) O45 85 0,00 min 0 lux 0,5 C 2,1 C
19.10.2005 06:40 2,1 C 1,2 C 89 % 1018 hPa 0,0 l/m 2,6 m/s (1 Bft) O-NO22.5 75 0,00 min 0 lux 0,5 C -0,7 C
19.10.2005 06:45 2,3 C 1,3 C 88 % 1018 hPa 0,0 l/m 2,1 m/s (1 Bft) O-NO45 60 0,00 min 0 lux 0,5 C 1,0 C
19.10.2005 06:50 2,3 C 1,3 C 87 % 1018 hPa 0,0 l/m 2,0 m/s (1 Bft) O22.5 90 0,00 min 0 lux 0,4 C 1,6 C
19.10.2005 06:55 1,9 C 1,3 C 87 % 1018 hPa 0,0 l/m 0,3 m/s (0 Bft) O45 90 0,00 min 0 lux -0,0 C 1,9 C
19.10.2005 07:00 2,1 C 1,3 C 87 % 1018 hPa 0,0 l/m 2,1 m/s (1 Bft) O-NO45 60 0,00 min 0 lux 0,2 C 0,9 C
19.10.2005 07:05 2,0 C 1,4 C 86 % 1018 hPa 0,0 l/m 0,3 m/s (0 Bft) O-NO67.5 60 0,00 min 0 lux -0,1 C 2,0 C
19.10.2005 07:10 2,1 C 1,4 C 86 % 1018 hPa 0,0 l/m 1,4 m/s (1 Bft) O-NO22.5 70 0,00 min 0 lux 0,0 C 2,1 C
19.10.2005 07:15 2,3 C 1,4 C 86 % 1018 hPa 0,0 l/m 1,6 m/s (1 Bft) O22.5 80 0,00 min 0 lux 0,2 C 2,3 C
19.10.2005 07:20 2,1 C 1,5 C 86 % 1018 hPa 0,0 l/m 2,1 m/s (1 Bft) O-NO45 75 0,00 min 0 lux 0,0 C 1,0 C
19.10.2005 07:25 2,5 C 1,6 C 85 % 1018 hPa 0,0 l/m 4,1 m/s (1 Bft) O-NO45 70 0,00 min 0 lux 0,2 C -3,9 C
19.10.2005 07:30 2,6 C 1,7 C 85 % 1018 hPa 0,0 l/m 5,1 m/s (1 Bft) O-NO45 75 0,00 min 0 lux 0,3 C -5,5 C
19.10.2005 07:35 2,7 C 1,9 C 83 % 1018 hPa 0,0 l/m 3,6 m/s (1 Bft) O-NO45 70 0,00 min 0 lux 0,1 C -2,5 C
19.10.2005 07:40 2,7 C 1,9 C 83 % 1018 hPa 0,0 l/m 4,0 m/s (1 Bft) O45 85 0,00 min 100 lux 0,1 C -3,3 C
19.10.2005 07:45 2,7 C 1,9 C 83 % 1018 hPa 0,0 l/m 3,0 m/s (1 Bft) O45 95 0,00 min 232 lux 0,1 C -1,1 C
19.10.2005 07:50 2,7 C 2,0 C 82 % 1018 hPa 0,0 l/m 3,0 m/s (1 Bft) O45 85 0,00 min 308 lux -0,1 C -1,1 C
19.10.2005 07:55 2,7 C 2,1 C 82 % 1018 hPa 0,0 l/m 3,1 m/s (1 Bft) O45 85 0,00 min 464 lux -0,1 C -1,2 C
19.10.2005 08:00 2,5 C 2,0 C 82 % 1018 hPa 0,0 l/m 2,0 m/s (1 Bft) O45 95 0,00 min 613 lux -0,3 C 1,7 C
19.10.2005 08:05 2,4 C 2,0 C 82 % 1018 hPa 0,0 l/m 0,2 m/s (0 Bft) O-SO22.5 110 0,00 min 746 lux -0,4 C 2,4 C
19.10.2005 08:10 2,4 C 2,0 C 83 % 1018 hPa 0,0 l/m 1,4 m/s (1 Bft) O22.5 95 0,00 min 1,12 klux -0,2 C 2,4 C
19.10.2005 08:15 2,5 C 2,0 C 83 % 1018 hPa 0,0 l/m 2,1 m/s (1 Bft) O22.5 85 0,00 min 1,96 klux -0,1 C 1,5 C
19.10.2005 08:20 2,5 C 2,0 C 83 % 1018 hPa 0,0 l/m 2,0 m/s (1 Bft) O45 80 0,00 min 1,86 klux -0,1 C 1,7 C
19.10.2005 08:25 2,4 C 2,0 C 83 % 1018 hPa 0,0 l/m 0,3 m/s (0 Bft) O22.5 80 0,00 min 3,00 klux -0,2 C 2,4 C
19.10.2005 08:30 2,4 C 2,0 C 83 % 1018 hPa 0,0 l/m 0,0 m/s (0 Bft) O-SO22.5 105 0,00 min 3,31 klux -0,2 C 2,4 C
19.10.2005 08:35 2,3 C 2,0 C 83 % 1018 hPa 0,0 l/m 0,0 m/s (0 Bft) O-SO 110 0,00 min 4,27 klux -0,3 C 2,3 C
19.10.2005 08:40 2,5 C 2,0 C 83 % 1018 hPa 0,0 l/m 2,0 m/s (1 Bft) O22.5 80 5,00 min 8,49 klux -0,1 C 1,7 C
19.10.2005 08:45 2,7 C 2,2 C 83 % 1018 hPa 0,0 l/m 1,5 m/s (1 Bft) NO67.5 50 5,00 min 10,1 klux 0,1 C 2,7 C
19.10.2005 08:50 2,7 C 2,3 C 83 % 1018 hPa 0,0 l/m 1,6 m/s (1 Bft) O-SO22.5 105 0,00 min 7,43 klux 0,1 C 2,7 C
19.10.2005 08:55 2,3 C 2,3 C 82 % 1018 hPa 0,0 l/m 0,0 m/s (0 Bft) SO22.5 135 5,00 min 11,3 klux -0,4 C 2,3 C
19.10.2005 09:00 2,4 C 2,4 C 83 % 1018 hPa 0,0 l/m 0,0 m/s (0 Bft) O 85 5,00 min 16,9 klux -0,2 C 2,4 C
19.10.2005 09:05 2,8 C 2,5 C 83 % 1018 hPa 0,0 l/m 0,0 m/s (0 Bft) O 90 5,00 min 16,7 klux 0,2 C 2,8 C
19.10.2005 09:10 3,0 C 2,6 C 83 % 1018 hPa 0,0 l/m 1,1 m/s (1 Bft) O45 95 0,00 min 8,01 klux 0,4 C 3,0 C
19.10.2005 09:15 3,3 C 2,7 C 81 % 1018 hPa 0,0 l/m 2,8 m/s (1 Bft) O22.5 80 0,00 min 8,20 klux 0,4 C 0,3 C
19.10.2005 09:20 3,5 C 2,9 C 79 % 1018 hPa 0,0 l/m 2,4 m/s (1 Bft) O45 85 0,00 min 8,60 klux 0,2 C 1,6 C
19.10.2005 09:25 3,5 C 3,1 C 79 % 1018 hPa 0,0 l/m 1,9 m/s (1 Bft) O45 95 0,00 min 9,1 klux 0,2 C 3,1 C
19.10.2005 09:30 3,6 C 3,1 C 78 % 1018 hPa 0,0 l/m 2,3 m/s (1 Bft) O22.5 95 0,00 min 9,5 klux 0,1 C 1,9 C
19.10.2005 09:35 3,6 C 3,3 C 77 % 1018 hPa 0,0 l/m 2,6 m/s (1 Bft) O45 90 0,00 min 9,8 klux -0,0 C 0,9 C
19.10.2005 09:40 3,7 C 3,3 C 77 % 1018 hPa 0,0 l/m 3,0 m/s (1 Bft) O45 85 0,00 min 10,9 klux 0,1 C 0,1 C
19.10.2005 09:45 3,8 C 3,4 C 77 % 1018 hPa 0,0 l/m 2,4 m/s (1 Bft) O-NO22.5 75 0,00 min 12,9 klux 0,1 C 1,8 C
19.10.2005 09:50 4,1 C 3,7 C 77 % 1018 hPa 0,0 l/m 2,6 m/s (1 Bft) NO45 55 5,00 min 22,9 klux 0,4 C 1,5 C
19.10.2005 09:55 4,4 C 4,0 C 75 % 1018 hPa 0,0 l/m 2,9 m/s (1 Bft) O22.5 80 0,00 min 20,9 klux 0,4 C 1,2 C
19.10.2005 10:00 4,4 C 4,2 C 74 % 1018 hPa 0,0 l/m 3,5 m/s (1 Bft) O22.5 90 0,00 min 18,2 klux 0,2 C -0,3 C
19.10.2005 10:05 4,5 C 4,5 C 73 % 1018 hPa 0,0 l/m 3,7 m/s (1 Bft) O-NO22.5 70 0,00 min 20,5 klux 0,1 C -0,6 C
19.10.2005 10:10 4,6 C 5,0 C 72 % 1018 hPa 0,0 l/m 3,8 m/s (1 Bft) O45 80 5,00 min 24,6 klux -0,0 C -0,6 C
19.10.2005 10:15 4,6 C 5,4 C 72 % 1018 hPa 0,0 l/m 3,6 m/s (1 Bft) O45 95 0,00 min 21,1 klux -0,0 C -0,3 C
19.10.2005 10:20 4,7 C 5,6 C 72 % 1018 hPa 0,0 l/m 3,5 m/s (1 Bft) O-SO22.5 110 5,00 min 31,2 klux 0,1 C 0,1 C
19.10.2005 10:25 5,4 C 6,4 C 72 % 1018 hPa 0,0 l/m 2,5 m/s (1 Bft) O-SO45 105 5,00 min 36,3 klux 0,8 C 3,2 C
19.10.2005 10:30 5,3 C 7,2 C 71 % 1018 hPa 0,0 l/m 3,4 m/s (1 Bft) O-SO45 120 5,00 min 35,2 klux 0,5 C 1,0 C
19.10.2005 10:35 5,5 C 7,4 C 68 % 1018 hPa 0,0 l/m 3,2 m/s (1 Bft) O-SO45 105 0,00 min 26,1 klux 0,1 C 1,6 C
19.10.2005 10:40 5,3 C 7,6 C 68 % 1018 hPa 0,0 l/m 3,6 m/s (1 Bft) O-SO45 110 0,00 min 21,7 klux -0,1 C 0,6 C
19.10.2005 10:45 5,4 C 7,5 C 68 % 1018 hPa 0,0 l/m 3,2 m/s (1 Bft) O-SO22.5 105 0,00 min 16,6 klux -0,0 C 1,5 C
19.10.2005 10:50 5,5 C 7,4 C 69 % 1018 hPa 0,0 l/m 3,9 m/s (1 Bft) O45 100 0,00 min 15,8 klux 0,3 C 0,3 C
19.10.2005 10:55 5,7 C 7,3 C 69 % 1018 hPa 0,0 l/m 3,3 m/s (1 Bft) O-SO22.5 115 0,00 min 19,2 klux 0,5 C 1,7 C
19.10.2005 11:00 5,8 C 7,4 C 68 % 1018 hPa 0,0 l/m 4,1 m/s (1 Bft) O-SO22.5 115 0,00 min 23,7 klux 0,4 C 0,2 C
19.10.2005 11:05 5,8 C 7,4 C 68 % 1018 hPa 0,0 l/m 3,5 m/s (1 Bft) O-SO45 115 0,00 min 19,8 klux 0,4 C 1,4 C
19.10.2005 11:10 5,8 C 7,5 C 68 % 1018 hPa 0,0 l/m 4,2 m/s (1 Bft) O-SO45 105 0,00 min 23,9 klux 0,4 C -0,0 C
19.10.2005 11:15 6,1 C 7,6 C 65 % 1018 hPa 0,0 l/m 4,6 m/s (1 Bft) O67.5 100 0,00 min 24,8 klux 0,0 C -0,3 C
19.10.2005 11:20 6,4 C 7,8 C 65 % 1018 hPa 0,0 l/m 4,3 m/s (1 Bft) O-SO22.5 120 0,00 min 24,8 klux 0,3 C 0,5 C
19.10.2005 11:25 6,5 C 8,1 C 64 % 1018 hPa 0,0 l/m 4,3 m/s (1 Bft) O-SO22.5 120 5,00 min 33,7 klux 0,2 C 0,6 C
19.10.2005 11:30 6,3 C 8,2 C 64 % 1018 hPa 0,0 l/m 4,7 m/s (1 Bft) O-SO45 105 0,00 min 22,7 klux 0,0 C -0,2 C
19.10.2005 11:35 6,2 C 8,3 C 65 % 1018 hPa 0,0 l/m 4,3 m/s (1 Bft) O45 85 0,00 min 25,7 klux 0,1 C 0,3 C
19.10.2005 11:40 6,2 C 8,4 C 65 % 1018 hPa 0,0 l/m 3,9 m/s (1 Bft) O-SO45 110 0,00 min 27,6 klux 0,1 C 1,0 C
19.10.2005 11:45 6,5 C 8,5 C 64 % 1018 hPa 0,0 l/m 3,7 m/s (1 Bft) O-SO45 120 0,00 min 21,8 klux 0,2 C 1,8 C
19.10.2005 11:50 6,5 C 8,4 C 64 % 1018 hPa 0,0 l/m 3,3 m/s (1 Bft) O-SO45 110 0,00 min 20,8 klux 0,2 C 2,6 C
19.10.2005 11:55 6,7 C 8,4 C 64 % 1018 hPa 0,0 l/m 3,6 m/s (1 Bft) O-SO45 105 0,00 min 22,7 klux 0,4 C 2,2 C
19.10.2005 12:00 6,8 C 8,4 C 64 % 1018 hPa 0,0 l/m 3,7 m/s (1 Bft) O-SO22.5 110 0,00 min 24,8 klux 0,5 C 2,1 C
19.10.2005 12:05 7,1 C 8,7 C 63 % 1018 hPa 0,0 l/m 2,9 m/s (1 Bft) O-SO22.5 120 5,00 min 38,8 klux 0,5 C 4,1 C
19.10.2005 12:10 7,3 C 9,4 C 62 % 1018 hPa 0,0 l/m 4,2 m/s (1 Bft) O-SO45 105 0,00 min 36,1 klux 0,5 C 1,8 C
19.10.2005 12:15 7,6 C 9,8 C 61 % 1018 hPa 0,0 l/m 5,0 m/s (1 Bft) SO67.5 125 5,00 min 38,8 klux 0,6 C 0,9 C
19.10.2005 12:20 7,8 C 10,4 C 60 % 1018 hPa 0,0 l/m 4,3 m/s (1 Bft) SO45 125 5,00 min 41,3 klux 0,5 C 2,2 C
19.10.2005 12:25 7,8 C 10,5 C 60 % 1018 hPa 0,0 l/m 3,3 m/s (1 Bft) SO45 135 5,00 min 41,9 klux 0,5 C 4,1 C
19.10.2005 12:30 7,9 C 10,8 C 60 % 1018 hPa 0,0 l/m 4,3 m/s (1 Bft) O-SO45 120 5,00 min 37,4 klux 0,6 C 2,3 C
19.10.2005 12:35 7,4 C 10,8 C 59 % 1018 hPa 0,0 l/m 3,9 m/s (1 Bft) O-SO22.5 120 5,00 min 39,2 klux -0,1 C 2,4 C
19.10.2005 12:40 7,7 C 11,3 C 60 % 1018 hPa 0,0 l/m 3,5 m/s (1 Bft) O-SO45 105 0,00 min 26,5 klux 0,4 C 3,6 C
19.10.2005 12:45 7,3 C 11,1 C 60 % 1018 hPa 0,0 l/m 3,8 m/s (1 Bft) O-SO22.5 105 0,00 min 26,4 klux 0,1 C 2,5 C
19.10.2005 12:50 7,7 C 11,1 C 61 % 1017 hPa 0,0 l/m 2,9 m/s (1 Bft) O-SO45 115 5,00 min 41,8 klux 0,7 C 4,7 C
19.10.2005 12:55 8,1 C 11,5 C 59 % 1017 hPa 0,0 l/m 3,0 m/s (1 Bft) O-SO45 110 0,00 min 29,2 klux 0,6 C 5,0 C
19.10.2005 13:00 8,2 C 11,6 C 59 % 1017 hPa 0,0 l/m 3,0 m/s (1 Bft) O-SO45 110 0,00 min 27,7 klux 0,7 C 5,1 C
19.10.2005 13:05 8,4 C 11,6 C 58 % 1017 hPa 0,0 l/m 3,3 m/s (1 Bft) SO22.5 135 0,00 min 28,3 klux 0,6 C 4,7 C
19.10.2005 13:10 8,6 C 11,7 C 58 % 1017 hPa 0,0 l/m 2,0 m/s (1 Bft) SO45 140 0,00 min 29,8 klux 0,8 C 8,1 C
19.10.2005 13:15 8,5 C 11,7 C 57 % 1017 hPa 0,0 l/m 3,2 m/s (1 Bft) O-SO45 120 0,00 min 29,1 klux 0,5 C 5,1 C
19.10.2005 13:20 8,5 C 11,6 C 57 % 1017 hPa 0,0 l/m 4,1 m/s (1 Bft) O-SO45 120 0,00 min 27,1 klux 0,5 C 3,4 C
19.10.2005 13:25 8,5 C 11,6 C 57 % 1017 hPa 0,0 l/m 2,2 m/s (1 Bft) O-SO22.5 110 0,00 min 24,5 klux 0,5 C 7,4 C
19.10.2005 13:30 8,5 C 11,5 C 57 % 1017 hPa 0,0 l/m 3,4 m/s (1 Bft) O-SO22.5 110 0,00 min 25,1 klux 0,5 C 4,6 C
19.10.2005 13:35 8,6 C 11,3 C 57 % 1017 hPa 0,0 l/m 3,8 m/s (1 Bft) SO45 125 0,00 min 22,6 klux 0,6 C 4,0 C
19.10.2005 13:40 8,8 C 11,2 C 56 % 1017 hPa 0,0 l/m 3,4 m/s (1 Bft) SO67.5 140 0,00 min 20,9 klux 0,5 C 5,1 C
19.10.2005 13:45 9,1 C 10,9 C 56 % 1017 hPa 0,0 l/m 1,9 m/s (1 Bft) O-SO45 120 0,00 min 21,5 klux 0,8 C 8,7 C
19.10.2005 13:50 9,0 C 10,9 C 56 % 1017 hPa 0,0 l/m 3,0 m/s (1 Bft) O-SO45 120 0,00 min 25,6 klux 0,7 C 6,0 C
19.10.2005 13:55 8,8 C 10,9 C 56 % 1017 hPa 0,0 l/m 3,7 m/s (1 Bft) O-SO22.5 120 0,00 min 23,9 klux 0,5 C 4,5 C
19.10.2005 14:00 9,1 C 10,9 C 56 % 1017 hPa 0,0 l/m 2,7 m/s (1 Bft) O-SO22.5 110 0,00 min 18,6 klux 0,8 C 6,7 C
19.10.2005 14:05 9,0 C 10,9 C 56 % 1017 hPa 0,0 l/m 2,8 m/s (1 Bft) SO22.5 130 0,00 min 19,4 klux 0,7 C 6,4 C
19.10.2005 14:10 8,7 C 10,8 C 56 % 1017 hPa 0,0 l/m 3,1 m/s (1 Bft) O-SO45 115 0,00 min 19,1 klux 0,4 C 5,5 C
19.10.2005 14:15 9,1 C 10,8 C 56 % 1017 hPa 0,0 l/m 1,7 m/s (1 Bft) O22.5 95 0,00 min 17,7 klux 0,8 C 9,1 C
19.10.2005 14:20 9,3 C 10,7 C 56 % 1017 hPa 0,0 l/m 1,7 m/s (1 Bft) O22.5 95 0,00 min 16,9 klux 1,0 C 9,3 C
19.10.2005 14:25 9,2 C 10,6 C 56 % 1017 hPa 0,0 l/m 1,8 m/s (1 Bft) SO22.5 125 0,00 min 16,4 klux 0,9 C 9,2 C
19.10.2005 14:30 9,2 C 10,4 C 56 % 1017 hPa 0,0 l/m 2,4 m/s (1 Bft) SO45 125 0,00 min 12,3 klux 0,9 C 7,7 C
19.10.2005 14:35 9,2 C 10,4 C 56 % 1017 hPa 0,0 l/m 2,7 m/s (1 Bft) SO45 125 0,00 min 10,8 klux 0,9 C 7,0 C
19.10.2005 14:40 9,1 C 10,2 C 57 % 1017 hPa 0,0 l/m 1,4 m/s (1 Bft) O22.5 90 0,00 min 8,10 klux 1,0 C 9,1 C
19.10.2005 14:45 8,9 C 10,1 C 58 % 1017 hPa 0,0 l/m 0,5 m/s (0 Bft) O-SO22.5 110 0,00 min 6,01 klux 1,1 C 8,9 C
19.10.2005 14:50 9,0 C 10,0 C 58 % 1017 hPa 0,0 l/m 0,3 m/s (0 Bft) O 95 0,00 min 4,96 klux 1,2 C 9,0 C
19.10.2005 14:55 9,1 C 9,9 C 59 % 1017 hPa 0,0 l/m 1,2 m/s (1 Bft) O-SO22.5 120 0,00 min 4,91 klux 1,5 C 9,1 C
19.10.2005 15:00 9,0 C 9,8 C 59 % 1017 hPa 0,0 l/m 0,9 m/s (0 Bft) O-SO22.5 120 0,00 min 3,88 klux 1,4 C 9,0 C
19.10.2005 15:05 8,8 C 9,8 C 60 % 1017 hPa 0,0 l/m 2,9 m/s (1 Bft) SO22.5 135 0,00 min 2,34 klux 1,5 C 6,1 C
19.10.2005 15:10 8,8 C 9,6 C 60 % 1017 hPa 0,0 l/m 2,9 m/s (1 Bft) SO22.5 140 0,00 min 3,02 klux 1,5 C 5,9 C
19.10.2005 15:15 8,7 C 9,4 C 62 % 1017 hPa 0,0 l/m 2,5 m/s (1 Bft) SO22.5 145 0,00 min 4,12 klux 1,8 C 6,8 C
19.10.2005 15:20 8,5 C 9,2 C 67 % 1017 hPa 0,0 l/m 1,9 m/s (1 Bft) S-SO45 165 0,00 min 4,80 klux 2,7 C 8,3 C
19.10.2005 15:25 8,2 C 9,2 C 69 % 1017 hPa 0,0 l/m 2,6 m/s (1 Bft) SO45 140 0,00 min 4,31 klux 2,9 C 6,1 C
19.10.2005 15:30 7,6 C 8,6 C 74 % 1017 hPa 0,4 l/m 2,6 m/s (1 Bft) SO22.5 140 0,00 min 3,63 klux 3,3 C 5,4 C
19.10.2005 15:35 7,6 C 8,3 C 77 % 1017 hPa 0,0 l/m 1,8 m/s (1 Bft) SO22.5 135 0,00 min 3,85 klux 3,8 C 7,5 C
19.10.2005 15:40 7,4 C 8,3 C 77 % 1017 hPa 0,0 l/m 1,8 m/s (1 Bft) SO22.5 135 0,00 min 3,70 klux 3,6 C 7,3 C
19.10.2005 15:45 7,4 C 8,2 C 78 % 1017 hPa 0,0 l/m 2,1 m/s (1 Bft) O-SO45 120 0,00 min 3,78 klux 3,8 C 6,5 C
19.10.2005 15:50 7,2 C 8,1 C 79 % 1017 hPa 0,0 l/m 1,4 m/s (1 Bft) O-SO22.5 115 0,00 min 3,67 klux 3,8 C 7,2 C
19.10.2005 15:55 7,1 C 8,0 C 79 % 1017 hPa 0,0 l/m 2,1 m/s (1 Bft) O22.5 100 0,00 min 2,94 klux 3,7 C 6,1 C
19.10.2005 16:00 7,0 C 7,9 C 79 % 1017 hPa 0,4 l/m 2,4 m/s (1 Bft) O22.5 100 0,00 min 3,24 klux 3,6 C 5,3 C
19.10.2005 16:05 7,0 C 7,8 C 80 % 1017 hPa 0,0 l/m 1,3 m/s (1 Bft) O22.5 90 0,00 min 3,54 klux 3,8 C 7,0 C
19.10.2005 16:10 6,9 C 7,8 C 82 % 1017 hPa 0,4 l/m 1,9 m/s (1 Bft) O22.5 80 0,00 min 3,57 klux 4,0 C 6,6 C
19.10.2005 16:15 6,8 C 7,7 C 83 % 1017 hPa 0,0 l/m 1,6 m/s (1 Bft) O45 95 0,00 min 3,36 klux 4,1 C 6,8 C
19.10.2005 16:20 6,8 C 7,7 C 84 % 1017 hPa 0,4 l/m 1,4 m/s (1 Bft) O22.5 100 0,00 min 2,42 klux 4,3 C 6,8 C
19.10.2005 16:25 6,8 C 7,6 C 84 % 1017 hPa 0,4 l/m 1,8 m/s (1 Bft) O-SO22.5 105 0,00 min 2,31 klux 4,3 C 6,8 C
19.10.2005 16:30 6,8 C 7,6 C 84 % 1017 hPa 0,0 l/m 1,9 m/s (1 Bft) O-SO45 110 0,00 min 2,24 klux 4,3 C 6,3 C
19.10.2005 16:35 6,5 C 7,5 C 86 % 1017 hPa 0,4 l/m 2,5 m/s (1 Bft) O-SO22.5 115 0,00 min 2,24 klux 4,3 C 4,5 C
19.10.2005 16:40 6,5 C 7,5 C 86 % 1017 hPa 0,0 l/m 2,1 m/s (1 Bft) O-SO22.5 115 0,00 min 2,27 klux 4,3 C 5,5 C
19.10.2005 16:45 6,5 C 7,4 C 86 % 1017 hPa 0,4 l/m 1,8 m/s (1 Bft) O-SO45 110 0,00 min 2,13 klux 4,3 C 6,4 C
19.10.2005 16:50 6,5 C 7,4 C 86 % 1017 hPa 0,4 l/m 2,3 m/s (1 Bft) O45 90 0,00 min 2,29 klux 4,3 C 4,9 C
19.10.2005 16:55 6,4 C 7,3 C 88 % 1017 hPa 0,0 l/m 1,9 m/s (1 Bft) O-SO45 110 0,00 min 2,44 klux 4,6 C 5,9 C
19.10.2005 17:00 6,4 C 7,3 C 88 % 1017 hPa 0,4 l/m 1,2 m/s (1 Bft) SO22.5 135 0,00 min 1,35 klux 4,6 C 6,4 C
19.10.2005 17:05 6,4 C 7,3 C 88 % 1017 hPa 0,0 l/m 2,5 m/s (1 Bft) O-SO22.5 120 0,00 min 1,80 klux 4,6 C 4,2 C
19.10.2005 17:10 6,5 C 7,3 C 89 % 1017 hPa 0,0 l/m 2,1 m/s (1 Bft) SO22.5 125 0,00 min 1,13 klux 4,8 C 5,4 C
19.10.2005 17:15 6,3 C 7,3 C 89 % 1017 hPa 0,0 l/m 2,4 m/s (1 Bft) O-SO22.5 120 0,00 min 2,24 klux 4,6 C 4,4 C
19.10.2005 17:20 6,4 C 7,3 C 89 % 1017 hPa 0,0 l/m 2,2 m/s (1 Bft) O22.5 90 0,00 min 1,49 klux 4,7 C 5,2 C
19.10.2005 17:25 6,3 C 7,2 C 88 % 1017 hPa 0,0 l/m 1,0 m/s (0 Bft) O22.5 85 0,00 min 3,16 klux 4,5 C 6,3 C
19.10.2005 17:30 6,4 C 7,2 C 89 % 1017 hPa 0,0 l/m 2,9 m/s (1 Bft) O45 85 0,00 min 3,30 klux 4,7 C 3,4 C
19.10.2005 17:35 6,4 C 7,2 C 89 % 1017 hPa 0,0 l/m 2,3 m/s (1 Bft) O22.5 90 0,00 min 4,01 klux 4,7 C 4,8 C
19.10.2005 17:40 6,5 C 7,2 C 88 % 1017 hPa 0,0 l/m 1,2 m/s (1 Bft) O22.5 95 0,00 min 5,63 klux 4,7 C 6,5 C
19.10.2005 17:45 6,7 C 7,2 C 88 % 1017 hPa 0,0 l/m 1,8 m/s (1 Bft) O45 95 0,00 min 5,65 klux 4,9 C 6,6 C
19.10.2005 17:50 6,8 C 7,3 C 88 % 1017 hPa 0,0 l/m 0,1 m/s (0 Bft) O-SO 120 0,00 min 4,16 klux 5,0 C 6,8 C
19.10.2005 17:55 6,9 C 7,3 C 88 % 1017 hPa 0,0 l/m 0,0 m/s (0 Bft) SO22.5 125 0,00 min 4,11 klux 5,1 C 6,9 C
19.10.2005 18:00 6,8 C 7,4 C 88 % 1017 hPa 0,0 l/m 1,8 m/s (1 Bft) O-SO45 120 5,00 min 4,66 klux 5,0 C 6,8 C
19.10.2005 18:05 6,8 C 7,5 C 87 % 1017 hPa 0,0 l/m 1,8 m/s (1 Bft) O-SO 120 5,00 min 4,37 klux 4,8 C 6,7 C
19.10.2005 18:10 6,9 C 7,5 C 87 % 1017 hPa 0,0 l/m 1,2 m/s (1 Bft) O-SO45 105 5,00 min 4,25 klux 4,9 C 6,9 C
19.10.2005 18:15 6,8 C 7,5 C 87 % 1017 hPa 0,0 l/m 1,5 m/s (1 Bft) O-SO22.5 105 5,00 min 3,86 klux 4,8 C 6,8 C
19.10.2005 18:20 6,7 C 7,5 C 87 % 1017 hPa 0,0 l/m 1,9 m/s (1 Bft) O-SO22.5 115 0,00 min 2,83 klux 4,7 C 6,5 C
19.10.2005 18:25 6,8 C 7,5 C 87 % 1017 hPa 0,0 l/m 1,8 m/s (1 Bft) O-SO22.5 110 0,00 min 1,83 klux 4,8 C 6,8 C
19.10.2005 18:30 6,7 C 7,5 C 87 % 1017 hPa 0,0 l/m 2,1 m/s (1 Bft) O-SO22.5 115 0,00 min 926 lux 4,7 C 5,9 C
19.10.2005 18:35 6,8 C 7,4 C 88 % 1017 hPa 0,0 l/m 1,3 m/s (1 Bft) O-SO22.5 120 0,00 min 207 lux 5,0 C 6,8 C
19.10.2005 18:40 6,7 C 7,4 C 88 % 1017 hPa 0,0 l/m 1,5 m/s (1 Bft) O-SO22.5 115 0,00 min 123 lux 4,9 C 6,7 C
19.10.2005 18:45 6,7 C 7,3 C 88 % 1017 hPa 0,0 l/m 1,5 m/s (1 Bft) O-SO22.5 115 0,00 min 44 lux 4,9 C 6,7 C
19.10.2005 18:50 6,8 C 7,3 C 88 % 1017 hPa 0,0 l/m 0,0 m/s (0 Bft) O-SO 115 0,00 min 20 lux 5,0 C 6,8 C
19.10.2005 18:55 6,7 C 7,3 C 88 % 1017 hPa 0,0 l/m 0,0 m/s (0 Bft) SO22.5 125 0,00 min 12 lux 4,9 C 6,7 C
19.10.2005 19:00 6,6 C 7,2 C 88 % 1017 hPa 0,0 l/m 0,0 m/s (0 Bft) SO 125 0,00 min 8 lux 4,8 C 6,6 C
19.10.2005 19:05 6,5 C 7,2 C 89 % 1017 hPa 0,0 l/m 1,2 m/s (1 Bft) O22.5 85 0,00 min 4 lux 4,8 C 6,5 C
19.10.2005 19:10 6,4 C 7,2 C 89 % 1017 hPa 0,0 l/m 0,2 m/s (0 Bft) O45 90 0,00 min 0 lux 4,7 C 6,4 C
19.10.2005 19:15 6,4 C 7,2 C 89 % 1017 hPa 0,0 l/m 0,2 m/s (0 Bft) O45 90 0,00 min 0 lux 4,7 C 6,4 C
19.10.2005 19:20 6,4 C 7,2 C 89 % 1017 hPa 0,0 l/m 1,9 m/s (1 Bft) O45 80 0,00 min 0 lux 4,7 C 5,9 C
19.10.2005 19:25 6,4 C 7,1 C 89 % 1017 hPa 0,0 l/m 1,8 m/s (1 Bft) O22.5 85 0,00 min 0 lux 4,7 C 6,4 C
19.10.2005 19:30 6,4 C 7,1 C 90 % 1017 hPa 0,0 l/m 1,3 m/s (1 Bft) O22.5 85 0,00 min 0 lux 4,9 C 6,4 C
19.10.2005 19:35 6,5 C 7,1 C 90 % 1017 hPa 0,0 l/m 1,2 m/s (1 Bft) O-SO45 105 0,00 min 0 lux 5,0 C 6,5 C
19.10.2005 19:40 6,5 C 7,1 C 90 % 1017 hPa 0,0 l/m 0,3 m/s (0 Bft) O22.5 100 0,00 min 0 lux 5,0 C 6,5 C
19.10.2005 19:45 6,5 C 7,0 C 90 % 1017 hPa 0,0 l/m 0,3 m/s (0 Bft) O22.5 100 0,00 min 0 lux 5,0 C 6,5 C
19.10.2005 19:50 6,5 C 7,1 C 90 % 1017 hPa 0,0 l/m 1,9 m/s (1 Bft) O-SO22.5 115 0,00 min 0 lux 5,0 C 6,1 C
19.10.2005 19:55 6,5 C 7,1 C 90 % 1017 hPa 0,0 l/m 1,1 m/s (0 Bft) SO22.5 125 0,00 min 0 lux 5,0 C 6,5 C
19.10.2005 20:00 6,5 C 7,1 C 90 % 1017 hPa 0,0 l/m 0,0 m/s (0 Bft) SO 125 0,00 min 0 lux 5,0 C 6,5 C
19.10.2005 20:05 6,5 C 7,1 C 89 % 1017 hPa 0,0 l/m 1,3 m/s (1 Bft) O-NO45 75 0,00 min 0 lux 4,8 C 6,5 C
19.10.2005 20:10 6,5 C 7,0 C 89 % 1017 hPa 0,0 l/m 1,2 m/s (1 Bft) O22.5 90 0,00 min 0 lux 4,8 C 6,5 C
19.10.2005 20:15 6,5 C 7,0 C 90 % 1017 hPa 0,0 l/m 0,1 m/s (0 Bft) O-NO 70 0,00 min 0 lux 5,0 C 6,5 C
19.10.2005 20:20 6,5 C 7,0 C 90 % 1017 hPa 0,0 l/m 1,1 m/s (1 Bft) O-NO22.5 70 0,00 min 0 lux 5,0 C 6,5 C
19.10.2005 20:25 6,5 C 7,0 C 90 % 1017 hPa 0,0 l/m 0,7 m/s (0 Bft) O22.5 80 0,00 min 0 lux 5,0 C 6,5 C
19.10.2005 20:30 6,4 C 7,0 C 90 % 1017 hPa 0,0 l/m 0,9 m/s (0 Bft) O-NO 60 0,00 min 0 lux 4,9 C 6,4 C
19.10.2005 20:35 6,5 C 7,0 C 90 % 1017 hPa 0,0 l/m 0,0 m/s (0 Bft) O 80 0,00 min 0 lux 5,0 C 6,5 C
19.10.2005 20:40 6,5 C 7,0 C 90 % 1017 hPa 0,0 l/m 0,0 m/s (0 Bft) O 80 0,00 min 0 lux 5,0 C 6,5 C
19.10.2005 20:45 6,5 C 7,0 C 90 % 1017 hPa 0,0 l/m 0,8 m/s (0 Bft) O-NO22.5 60 0,00 min 0 lux 5,0 C 6,5 C
19.10.2005 20:50 6,5 C 7,0 C 90 % 1017 hPa 0,0 l/m 0,0 m/s (0 Bft) NO 45 0,00 min 0 lux 5,0 C 6,5 C
19.10.2005 20:55 6,5 C 7,0 C 90 % 1017 hPa 0,0 l/m 0,0 m/s (0 Bft) NO 45 0,00 min 0 lux 5,0 C 6,5 C
19.10.2005 21:00 6,5 C 7,0 C 90 % 1017 hPa 0,0 l/m 0,0 m/s (0 Bft) O-NO 60 0,00 min 0 lux 5,0 C 6,5 C
19.10.2005 21:05 6,5 C 7,0 C 91 % 1017 hPa 0,0 l/m 0,0 m/s (0 Bft) O-NO 60 0,00 min 0 lux 5,1 C 6,5 C
19.10.2005 21:10 6,6 C 7,0 C 91 % 1017 hPa 0,0 l/m 0,0 m/s (0 Bft) O-NO 60 0,00 min 0 lux 5,2 C 6,6 C
19.10.2005 21:15 6,6 C 7,0 C 91 % 1017 hPa 0,0 l/m 0,0 m/s (0 Bft) O-NO 60 0,00 min 0 lux 5,2 C 6,6 C
19.10.2005 21:20 6,7 C 7,0 C 91 % 1017 hPa 0,0 l/m 0,0 m/s (0 Bft) O-NO 60 0,00 min 0 lux 5,3 C 6,7 C
19.10.2005 21:25 6,6 C 7,0 C 91 % 1017 hPa 0,0 l/m 0,0 m/s (0 Bft) O-NO 60 0,00 min 0 lux 5,2 C 6,6 C
19.10.2005 21:30 6,6 C 7,0 C 91 % 1017 hPa 0,0 l/m 0,8 m/s (0 Bft) O-NO 60 0,00 min 0 lux 5,2 C 6,6 C
19.10.2005 21:35 6,6 C 7,0 C 91 % 1017 hPa 0,0 l/m 0,0 m/s (0 Bft) O-NO 70 0,00 min 0 lux 5,2 C 6,6 C
19.10.2005 21:40 6,7 C 7,0 C 91 % 1017 hPa 0,0 l/m 0,0 m/s (0 Bft) O-NO 75 0,00 min 0 lux 5,3 C 6,7 C
19.10.2005 21:45 6,7 C 7,1 C 91 % 1017 hPa 0,0 l/m 0,0 m/s (0 Bft) O-NO 75 0,00 min 0 lux 5,3 C 6,7 C
19.10.2005 21:50 6,7 C 7,1 C 91 % 1017 hPa 0,0 l/m 0,0 m/s (0 Bft) O-NO 75 0,00 min 0 lux 5,3 C 6,7 C
19.10.2005 21:55 6,8 C 7,1 C 92 % 1017 hPa 0,0 l/m 0,0 m/s (0 Bft) O-NO 75 0,00 min 0 lux 5,6 C 6,8 C
19.10.2005 22:00 6,8 C 7,1 C 92 % 1017 hPa 0,0 l/m 0,0 m/s (0 Bft) O-NO 75 0,00 min 0 lux 5,6 C 6,8 C
19.10.2005 22:05 6,7 C 7,1 C 92 % 1017 hPa 0,0 l/m 0,0 m/s (0 Bft) O-NO 75 0,00 min 0 lux 5,5 C 6,7 C
19.10.2005 22:10 6,7 C 7,1 C 92 % 1017 hPa 0,0 l/m 0,0 m/s (0 Bft) O-NO 75 0,00 min 0 lux 5,5 C 6,7 C
19.10.2005 22:15 6,7 C 7,2 C 92 % 1017 hPa 0,0 l/m 0,0 m/s (0 Bft) O-NO 75 0,00 min 0 lux 5,5 C 6,7 C
19.10.2005 22:20 6,7 C 7,2 C 92 % 1017 hPa 0,0 l/m 0,0 m/s (0 Bft) O-NO 75 0,00 min 0 lux 5,5 C 6,7 C
19.10.2005 22:25 6,7 C 7,2 C 92 % 1017 hPa 0,0 l/m 0,0 m/s (0 Bft) O-NO 75 0,00 min 0 lux 5,5 C 6,7 C
19.10.2005 22:30 6,7 C 7,2 C 92 % 1017 hPa 0,0 l/m 0,0 m/s (0 Bft) O-NO 75 0,00 min 0 lux 5,5 C 6,7 C
19.10.2005 22:35 6,8 C 7,2 C 92 % 1017 hPa 0,0 l/m 0,0 m/s (0 Bft) O-NO 75 0,00 min 0 lux 5,6 C 6,8 C
19.10.2005 22:40 6,8 C 7,2 C 92 % 1017 hPa 0,0 l/m 0,0 m/s (0 Bft) O-NO 75 0,00 min 0 lux 5,6 C 6,8 C
19.10.2005 22:45 6,9 C 7,2 C 93 % 1017 hPa 0,0 l/m 0,0 m/s (0 Bft) O-NO 75 0,00 min 0 lux 5,8 C 6,9 C
19.10.2005 22:50 6,8 C 7,2 C 93 % 1017 hPa 0,0 l/m 0,0 m/s (0 Bft) O-NO 75 0,00 min 0 lux 5,7 C 6,8 C
19.10.2005 22:55 6,7 C 7,2 C 93 % 1017 hPa 0,0 l/m 0,0 m/s (0 Bft) O-NO 75 0,00 min 0 lux 5,6 C 6,7 C
19.10.2005 23:00 6,8 C 7,2 C 93 % 1017 hPa 0,0 l/m 0,0 m/s (0 Bft) O-NO 75 0,00 min 0 lux 5,7 C 6,8 C
19.10.2005 23:05 6,8 C 7,2 C 93 % 1017 hPa 0,0 l/m 0,0 m/s (0 Bft) O-NO 75 0,00 min 0 lux 5,7 C 6,8 C
19.10.2005 23:10 6,8 C 7,2 C 93 % 1017 hPa 0,0 l/m 0,0 m/s (0 Bft) O22.5 95 0,00 min 0 lux 5,7 C 6,8 C
19.10.2005 23:15 6,8 C 7,2 C 93 % 1017 hPa 0,0 l/m 0,0 m/s (0 Bft) O-SO 115 0,00 min 0 lux 5,7 C 6,8 C
19.10.2005 23:20 6,8 C 7,2 C 93 % 1017 hPa 0,0 l/m 0,8 m/s (0 Bft) O22.5 85 0,00 min 0 lux 5,7 C 6,8 C
19.10.2005 23:25 6,8 C 7,2 C 93 % 1017 hPa 0,0 l/m 0,3 m/s (0 Bft) O22.5 80 0,00 min 0 lux 5,7 C 6,8 C
19.10.2005 23:30 6,8 C 7,2 C 93 % 1017 hPa 0,0 l/m 0,1 m/s (0 Bft) O-NO22.5 75 0,00 min 0 lux 5,7 C 6,8 C
19.10.2005 23:35 6,9 C 7,2 C 93 % 1017 hPa 0,0 l/m 0,0 m/s (0 Bft) O 90 0,00 min 0 lux 5,8 C 6,9 C
19.10.2005 23:40 6,9 C 7,2 C 93 % 1017 hPa 0,0 l/m 0,0 m/s (0 Bft) O 100 0,00 min 0 lux 5,8 C 6,9 C
19.10.2005 23:45 6,8 C 7,2 C 93 % 1017 hPa 0,0 l/m 0,0 m/s (0 Bft) O 100 0,00 min 0 lux 5,7 C 6,8 C
19.10.2005 23:50 6,8 C 7,2 C 93 % 1016 hPa 0,0 l/m 0,9 m/s (0 Bft) O22.5 80 0,00 min 0 lux 5,7 C 6,8 C
19.10.2005 23:55 6,9 C 7,2 C 93 % 1016 hPa 0,0 l/m 0,0 m/s (0 Bft) O 100 0,00 min 0 lux 5,8 C 6,9 C
_ Min-Zeit 05:40 06:25 13:40 23:50 - 01:50 - - - - 06:20 07:30
Minimum _ 0,8 C 1,0 C 56 % 1016 hPa - 0,0 m/s (0 Bft) - - - - -1,1 C -5,5 C
_ Max-Zeit 14:20 13:10 22:45 00:00 15:30 07:30 - - 08:40 12:25 22:45 14:20
Maximum _ 9,3 C 11,7 C 93 % 1020 hPa 0,4 l/m 5,1 m/s
O-NO (3 Bft)
- - 5,00 min 41,9 klux 5,8 C 9,3 C
Durchschnitt _ 5,2 C 5,7 C 81 % 1018 hPa #3,2 l/m 1,7 m/s (2 Bft) O - #1:50 h 6,28 klux 2,1 C 3,7 C